This demonstration page uses our WeatherBlox Daily Observations layout. Learn more.

Left ArrowRight Arrow

40.92945, -100.16068

Hourly Observations for September 17, 2021

Temp ( °F °C ) Dew Point ( °F °C ) Humidity (%) Winds ( mph kmh ) Pressure ( in mb ) Visibility ( mi km ) Precip ( " mm )
12:15 am 00:15 Clear 71 21.4 61 16.2 72 72 SSE 7 11 29.76 1008 10 16 N/A
12:35 am 00:35 Clear 69 20.5 61 16.3 77 77 SSE 7 11 29.77 1008 7 11 N/A
12:55 am 00:55 Clear 69 20.5 61 16.3 77 77 SSE 7 11 29.77 1008 10 16 N/A
1:15 am 01:15 Clear 69 20.5 61 16.2 76 76 SSE 5 7 29.78 1008 10 16 N/A
1:35 am 01:35 Partly Cloudy 69 20.5 62 16.5 78 78 NNW 12 19 29.84 1010 7 11 N/A
1:55 am 01:55 Cloudy 70 21.2 62 16.6 75 75 WNW 8 13 29.85 1011 10 16 N/A
2:15 am 02:15 Cloudy 70 21.1 62 16.6 76 76 SSW 3 6 29.83 1010 10 16 N/A
2:35 am 02:35 Mostly Cloudy 70 21.1 62 16.6 76 76 SW 5 7 29.83 1010 10 16 N/A
2:55 am 02:55 Cloudy 71 21.8 62 16.5 72 72 N N/A 29.83 1010 10 16 N/A
3:15 am 03:15 Cloudy 72 22 62 16.5 71 71 N 12 19 29.85 1011 10 16 N/A
3:35 am 03:35 Cloudy 68 20 62 16.5 80 80 NNE 10 17 29.86 1011 10 16 N/A
3:55 am 03:55 Cloudy with Strong Thunderstorms 66 19 63 17 88 88 ENE 18 30 29.85 1011 4 6 0.09 2.29
4:15 am 04:15 Cloudy with Light Rain 65 18.6 63 17.4 93 93 NNE 10 17 29.90 1013 10 16 0.01 0.25
4:35 am 04:35 Cloudy with Light Rain 65 18.3 63 17.3 94 94 NNW 7 11 29.95 1014 10 16 0.02 0.51
4:55 am 04:55 Cloudy with Light Rain 64 18 62 16.9 93 93 NNE 14 22 29.96 1015 10 16 0.03 0.76
5:15 am 05:15 Cloudy 62 16.8 59 15.2 90 90 N 17 28 29.98 1015 10 16 N/A
5:35 am 05:35 Cloudy 61 16.1 59 15 93 93 NNE 17 28 30.01 1016 7 11 N/A
5:55 am 05:55 Cloudy 61 15.9 58 14.7 93 93 N 21 33 30.01 1016 7 11 N/A
6:15 am 06:15 Cloudy with Nearby Thunderstorms 57 14 54 12.1 88 88 NNE 28 44 30.05 1018 10 16 N/A
6:35 am 06:35 Cloudy 56 13.2 52 11.3 88 88 NNE 23 37 30.08 1019 10 16 N/A
6:55 am 06:55 Cloudy 56 13.1 52 11.1 88 88 NNE 25 41 30.10 1019 10 16 N/A
7:15 am 07:15 Cloudy 55 13 52 11 88 88 NNE 21 33 30.09 1019 10 16 N/A
7:35 am 07:35 Cloudy 56 13.1 51 10.7 86 86 NNE 17 28 30.11 1020 10 16 N/A
7:55 am 07:55 Cloudy 56 13.1 51 10.6 85 85 NNE 15 24 30.13 1020 10 16 N/A
8:15 am 08:15 Cloudy 56 13.2 51 10.5 84 84 NNE 16 26 30.13 1020 10 16 N/A
8:35 am 08:35 Cloudy 56 13.3 51 10.5 83 83 NNE 14 22 30.15 1021 10 16 N/A
8:55 am 08:55 Cloudy 56 13.6 50 10.2 80 80 NNE 13 20 30.16 1021 10 16 N/A
9:15 am 09:15 Cloudy 56 13.6 50 10 79 79 NNE 15 24 30.16 1021 10 16 N/A
9:35 am 09:35 Cloudy 56 13.6 49 9.6 77 77 NNE 15 24 30.18 1022 10 16 N/A
9:55 am 09:55 Cloudy 57 13.7 49 9.5 76 76 NE 15 24 30.19 1022 10 16 N/A
10:15 am 10:15 Cloudy 57 14 49 9.2 73 73 NE 8 13 30.19 1022 10 16 N/A
10:35 am 10:35 Cloudy 57 14.1 47 8.6 70 70 NE 10 17 30.20 1023 10 16 N/A
10:55 am 10:55 Cloudy 57 14.1 48 8.7 70 70 NE 12 19 30.21 1023 10 16 N/A
11:15 am 11:15 Cloudy 58 14.4 48 8.7 69 69 NE 14 22 30.20 1023 10 16 N/A
11:35 am 11:35 Cloudy 59 14.9 48 8.9 68 68 NE 12 19 30.21 1023 10 16 N/A
11:55 am 11:55 Cloudy 58 14.7 48 8.8 68 68 NE 14 22 30.21 1023 10 16 N/A
12:15 pm 12:15 Cloudy 59 15.2 48 8.7 65 65 NNE 12 19 30.20 1023 10 16 N/A
12:35 pm 12:35 Cloudy 60 15.6 48 8.9 65 65 NE 10 17 30.21 1023 10 16 N/A
12:55 pm 12:55 Cloudy 60 15.7 47 8.6 63 63 NE 12 19 30.22 1023 10 16 N/A
1:15 pm 13:15 Cloudy 60 15.6 47 8.3 62 62 NE 10 17 30.21 1023 10 16 N/A
1:35 pm 13:35 Cloudy 61 16.1 47 8.6 61 61 NE 13 20 30.21 1023 10 16 N/A
1:55 pm 13:55 Cloudy 62 16.5 48 8.9 61 61 NE 12 19 30.19 1022 10 16 N/A
2:15 pm 14:15 Cloudy 63 17.2 49 9.5 61 61 NNE 12 19 30.19 1022 10 16 N/A
2:35 pm 14:35 Partly Cloudy 64 17.9 49 9.5 58 58 NNE 12 19 30.18 1022 10 16 N/A
2:55 pm 14:55 Partly Cloudy 64 18 49 9.7 59 59 NE 8 13 30.18 1022 10 16 N/A
3:15 pm 15:15 Partly Cloudy 65 18.5 49 9.4 56 56 NE 9 15 30.16 1021 10 16 N/A
3:35 pm 15:35 Mostly Cloudy 67 19.3 50 9.8 54 54 NE 8 13 30.16 1021 10 16 N/A
3:55 pm 15:55 Mostly Cloudy 66 18.7 50 9.9 57 57 E 7 11 30.15 1021 10 16 N/A
4:15 pm 16:15 Cloudy 68 20.2 51 10.7 55 55 ENE 8 13 30.13 1020 10 16 N/A
4:35 pm 16:35 Mostly Cloudy 69 20.3 52 11.2 56 56 NE 6 9 30.12 1020 10 16 N/A
4:55 pm 16:55 Partly Cloudy 69 20.3 52 11 55 55 ENE 8 13 30.12 1020 10 16 N/A
5:15 pm 17:15 Sunny 69 20.5 52 11.3 56 56 ENE 8 13 30.11 1020 10 16 N/A
5:35 pm 17:35 Sunny 69 20.5 53 11.7 57 57 E 8 13 30.11 1020 10 16 N/A
5:55 pm 17:55 Partly Cloudy 67 19.7 53 11.9 61 61 E 5 7 30.11 1020 10 16 N/A
6:15 pm 18:15 Partly Cloudy 67 19.5 53 11.5 60 60 E 6 9 30.12 1020 10 16 N/A
6:35 pm 18:35 Mostly Cloudy 67 19.4 55 12.5 65 65 E 5 7 30.13 1020 10 16 N/A
6:55 pm 18:55 Cloudy 66 19.1 54 12.3 65 65 E 6 9 30.13 1020 10 16 N/A
7:15 pm 19:15 Cloudy 66 18.9 56 13.1 69 69 N N/A 30.13 1020 10 16 N/A
7:35 pm 19:35 Cloudy 65 18.5 56 13.3 72 72 E 3 6 30.12 1020 10 16 N/A
7:55 pm 19:55 Cloudy 64 18 56 13.2 74 74 ENE 3 6 30.13 1020 10 16 N/A
8:15 pm 20:15 Cloudy 62 16.5 57 13.9 85 85 ENE 5 7 30.14 1021 7 11 N/A
8:35 pm 20:35 Cloudy 61 16.3 56 13.6 84 84 NE 5 7 30.15 1021 10 16 N/A
8:55 pm 20:55 Cloudy 62 16.5 57 14.1 86 86 NE 5 7 30.16 1021 10 16 N/A
9:15 pm 21:15 Cloudy 62 16.7 56 13.6 82 82 N N/A 30.16 1021 10 16 N/A
9:35 pm 21:35 Mostly Cloudy 61 16 55 12.8 81 81 E 6 9 30.17 1022 10 16 N/A
9:55 pm 21:55 Partly Cloudy 59 14.8 55 12.6 87 87 E 5 7 30.19 1022 10 16 N/A
10:15 pm 22:15 Clear 58 14.6 54 12.2 86 86 E 5 7 30.18 1022 10 16 N/A
10:35 pm 22:35 Clear 59 14.9 54 12.2 84 84 N N/A 30.18 1022 10 16 N/A
10:55 pm 22:55 Clear 56 13.6 54 12 90 90 N N/A 30.20 1023 10 16 N/A
11:15 pm 23:15 Clear 58 14.5 54 12 85 85 ESE 6 9 30.18 1022 10 16 N/A
11:35 pm 23:35 Clear 59 15 54 12.2 83 83 SE 8 13 30.17 1022 10 16 N/A
11:55 pm 23:55 Clear 59 15 55 12.5 85 85 SE 5 7 30.19 1022 10 16 N/A

Powered by AerisWeather